IRIDIUM 60 [-]

Last updated on March 18, 2019, 3:11 a.m. UTC

1 25276U 98019E   19076.09838740  .20703913 -20185-5  27553-3 0  9993
2 25276  86.6001  19.3692 0055885 123.4760   3.9128 16.42359298 97670

Satellite is not in orbit.